DECAYED

STARLINK-3713, 52091 (Decayed)

Orbit data source: Space-Track

STARLINK-3713, 52091 was a payload satellite owned by SpaceX/Seattle (US) in LEO that was launched on Sat, 19 Mar 2022 UTC via an FALCON 9 launch vehicle from the Air Force Eastern Test Range (AFETR). Payload-class satellites include a variety of spacecraft equipped with specific instruments for various scientific and technological missions. These include communications satellites like Starlink; space stations such as the ISS; scientific satellites like the Hubble; Earth observation satellites from companies like Planet Labs, Umbra, and HawkEye 360; GPS; miniature CubeSats for education and research; and military/defense satellites.

Not visible in the next 10 days
Identifier
52091, 2022-029D
Orbit
Decayed
Country
Flag of USUS
Related business
Manufacturer
SpaceX/Seattle
Mission
Decayed Commercial Communications
Bus & Motor
STARLINK, Unknown motor
Mass
297 kg wet, ~275 kg dry
Launch date (UTC)
2022-03-19 (4 years ago)
Launch vehicle
FALCON 9
Launch site
Air Force Eastern Test Range (AFETR)
Object type
Payload
Rocket body
Debris
Shape & HBR
Box + 1 Pan, 10.1 m
Radar Cross Section
13.562 m², Large (>1 m²)

Expand to show TLE details & history
Last TLE update: 1 year ago

TLE from 1 year ago
0 STARLINK-3713
1 52091U 22029D   25027.15907331  .06200233  12200-4  70691-3 0  9998
2 52091  53.2017  87.3468 0004006 141.3896 320.1581 16.36147142159656
Epoch: 2025-01-27T03:49Z
TLE epoch observation values (Epoch: 2025-01-27T03:49:03.933Z)
Latitude
51.84286°
Longitude
12.20694°
Altitude
180.252 km
Speed
7.806 km/s
True Right ascension
13h 04m 37s
True Declination
51° 39' 39"
Sunlit
Object was in full shadow at epoch
Visualization orbit readout
Latitude
Unknown
Longitude
Unknown
Altitude
Unknown
Speed
Unknown
Apparent Right ascension
Unknown
Apparent Declination
Unknown
Sunlit
N/A
Visualization observer readout
Local Sidereal Time
21:24:24
Azimuth
Unknown
Elevation
Unknown
Doppler factor
Unknown
Orbital elements
Apogee altitude
178.958 km
Perigee altitude
173.707 km
Semi-major axis
6,554.469 km
Eccentricity
0.0004
Inclination
53.2017°
RAAN
87.3468°
Arg. of periapsis
141.3896°
True anomaly
320.12868°
Mean anomaly
320.1581°
Eccentric anomaly
320.14339°
Mean motion
4.09013 °/min
Orbital period
88.02 mins
BSTAR
0.00070691
Loading maneuver chart data...
Computing Atmospheric mass density...
Loading historical data...
Loading historical data...
Loading historical data...
Loading historical data...
Loading historical data...
Loading historical data...
Loading historical data...

Documentation

Showing up to 5 results
|